Meteo Giornale » Osservazioni meteo Italia » Palermo-Punta Raisi

ore: 12:50 - Osservazioni Meteo Palermo-Punta Raisi
Lat. 38° 11' N Lon. 13° 6' E Alt. 21 metri s.l.m.

molto_nuvoloso Europe/Rome

14 °C

Molto Nuvoloso

Temp. 24 Ore

10 °C

14 °C

Ovest

16.7 Km/h

Dew point 8 °C

Umidità 67 %

Visibilità  10 Km

Il sole sorge alle ore 07:13

Il sole tramonta alle ore 17:27

Data e Ora Cielo e Fenomeni T °C DP °C Um. % Pres. hPa Vis. km Vento km/h
Oggi h: 12:50 molto_nuvoloso Molto Nuvoloso 14 8 67 1019 10 O 16.7
Oggi h: 12:20 molto_nuvoloso Molto Nuvoloso 14 8 67 1019 10 O/NO 18.5
Oggi h: 11:50 nuvoloso Nuvoloso 14 8 67 1019 10 O 18.5
Oggi h: 11:20 molto_nuvoloso Molto Nuvoloso 14 9 71 1019 10 O/NO 18.5
Oggi h: 10:50 molto_nuvoloso Molto Nuvoloso 14 9 71 1019 10 O/NO 18.5
Oggi h: 10:20 molto_nuvoloso Molto Nuvoloso 14 9 71 1018 10 O 13
Oggi h: 09:50 molto_nuvoloso Molto Nuvoloso 14 9 71 1018 10 SO 9.3
Oggi h: 09:20 molto_nuvoloso Molto Nuvoloso 13 9 76 1018 10 N 3.7
Oggi h: 08:50 molto_nuvoloso Molto Nuvoloso 13 9 76 1018 10 N 5.5
Oggi h: 08:20 coperto Coperto 13 9 76 1017 10 N/NO 7.4
Oggi h: 07:50 coperto Coperto 12 9 81 1017 10 N 1.8
Oggi h: 07:20 molto_nuvoloso Molto Nuvoloso 11 9 87 1017 10 N 3.7
Oggi h: 06:50 nuvoloso Nuvoloso 12 9 81 1016 10 N 5.5
Oggi h: 06:20 nuvoloso Nuvoloso 12 9 81 1016 10 E/SE 7.4
Oggi h: 05:50 nuvoloso Nuvoloso 12 9 81 1016 10 N 3.7
Oggi h: 05:20 nuvoloso Nuvoloso 12 9 81 1015 10 N 5.5
Oggi h: 04:50 nuvoloso Nuvoloso 12 9 81 1015 10 S 7.4
Oggi h: 04:20 nuvoloso Nuvoloso 12 9 81 1015 10 S 7.4
Oggi h: 03:50 nuvoloso Nuvoloso 12 8 76 1015 10 S/SO 7.4
Oggi h: 03:20 nuvoloso Nuvoloso 12 8 76 1015 10 S 7.4
Oggi h: 02:50 nuvoloso Nuvoloso 11 9 87 1015 10 S 11.1
Oggi h: 02:20 nuvoloso Nuvoloso 11 9 87 1015 10 S/SO 14.8
Oggi h: 01:50 nuvoloso Nuvoloso 10 8 87 1015 10 S/SO 7.4
Oggi h: 01:20 nuvoloso Nuvoloso 11 8 81 1015 10 S/SO 9.3
Oggi h: 00:50 nuvoloso Nuvoloso 11 8 81 1016 10 N 5.5
Oggi h: 00:20 nuvoloso Nuvoloso 10 8 87 1016 10 N 5.5
Ieri h: 23:50 coperto_pioggia Pioggia Debole 11 8 81 1016 10 N 1.8
Ieri h: 23:20 coperto_pioggia Pioggia Debole 10 8 87 1016 10 S/SE 11.1
Ieri h: 22:50 coperto_pioggia Pioggia Debole 10 8 87 1016 10 S 7.4
Ieri h: 22:20 coperto_pioggia Pioggia Debole 10 7 81 1016 10 N 5.5
Ieri h: 21:50 molto_nuvoloso Molto Nuvoloso 10 7 81 1016 10 S/SO 11.1
Ieri h: 21:20 coperto_pioggia Pioggia Debole 10 7 81 1016 10 S/SO 11.1
Ieri h: 20:50 coperto_pioggia Pioggia Debole 10 7 81 1017 10 S/SO 14.8
Ieri h: 20:20 coperto_pioggia Pioggia Debole 10 7 81 1017 10 S/SO 16.7
Ieri h: 19:50 coperto_pioggia Pioggia Debole 10 7 81 1017 10 S 9.3
Ieri h: 19:20 coperto_pioggia Pioggia 11 7 76 1017 9 N 5.5
Ieri h: 18:50 coperto_pioggia Pioggia 11 6 71 1017 9 N 11.1
Ieri h: 18:20 nuvoloso Nuvoloso 13 5 58 1017 10 O 13
Ieri h: 17:50 nuvoloso Nuvoloso 12 5 62 1017 10 S 7.4
Ieri h: 17:20 nuvoloso Nuvoloso 13 3 50 1017 10 SO 9.3
Ieri h: 16:50 nuvoloso Nuvoloso 13 2 47 1017 10 O 13
Ieri h: 16:20 nuvoloso Nuvoloso 13 3 50 1017 10 O 13
Ieri h: 15:50 sereno Sereno 13 4 54 1017 10 O 13
Ieri h: 15:20 sereno Sereno 13 4 54 1017 10 O 14.8
Ieri h: 14:50 molto_nuvoloso Molto Nuvoloso 12 3 54 1017 10 O 13
Ieri h: 14:20 molto_nuvoloso Molto Nuvoloso 13 4 54 1018 10 O 16.7
Ieri h: 13:20 molto_nuvoloso Molto Nuvoloso 13 5 58 1018 10 O/SO 11.1
Ieri h: 12:50 nuvoloso Nuvoloso 12 5 62 1018 10 O/SO 7.4